Satellite: RS-38
Catalog number: 35869
Epoch time:      12278.71971612
Element set:     823
Inclination:      098.6377 deg
RA of node:       330.8980 deg
Eccentricity:    0.0005518
Arg of perigee:   092.3072 deg
Mean anomaly:     267.8729 deg
Mean motion:   14.22090410 rev/day
Decay rate:        8.7e-07 rev/day^2
Epoch rev:           15818
Checksum:              335

Satellite: JUGNU
Catalog number: 37839
Epoch time:      12277.78280963
Element set:    0241
Inclination:      019.9596 deg
RA of node:       060.3096 deg
Eccentricity:    0.0019206
Arg of perigee:   340.3503 deg
Mean anomaly:     019.6161 deg
Mean motion:   14.12085568 rev/day
Decay rate:       6.20e-06 rev/day^2
Epoch rev:           05061
Checksum:              291

Satellite: SRMSAT
Catalog number: 37841
Epoch time:      12278.69284855
Element set:     242
Inclination:      019.9699 deg
RA of node:       061.8374 deg
Eccentricity:    0.0012003
Arg of perigee:   310.6014 deg
Mean anomaly:     049.3366 deg
Mean motion:   14.10166470 rev/day
Decay rate:       2.64e-06 rev/day^2
Epoch rev:            5066
Checksum:              290

Satellite: RAX-2
Catalog number: 37853
Epoch time:      12277.86369432
Element set:    0311
Inclination:      101.7046 deg
RA of node:       007.5568 deg
Eccentricity:    0.0243446
Arg of perigee:   040.7818 deg
Mean anomaly:     321.1319 deg
Mean motion:   14.80977820 rev/day
Decay rate:      7.216e-05 rev/day^2
Epoch rev:           05048
Checksum:              302

Satellite: AUBIESAT
Catalog number: 37854
Epoch time:      12278.86833767
Element set:     304
Inclination:      101.7072 deg
RA of node:       009.4234 deg
Eccentricity:    0.0243575
Arg of perigee:   037.3976 deg
Mean anomaly:     324.3868 deg
Mean motion:   14.81444237 rev/day
Decay rate:      5.509e-05 rev/day^2
Epoch rev:            5062
Checksum:              315

Satellite: HRBE
Catalog number: 37855
Epoch time:      12277.81350390
Element set:    0304
Inclination:      101.7078 deg
RA of node:       007.8006 deg
Eccentricity:    0.0244998
Arg of perigee:   040.2603 deg
Mean anomaly:     321.6455 deg
Mean motion:   14.81249505 rev/day
Decay rate:      7.854e-05 rev/day^2
Epoch rev:           05046
Checksum:              291

Satellite: RS-39
Catalog number: 38051
Epoch time:      12278.81562591
Element set:     763
Inclination:      051.6397 deg
RA of node:       356.7651 deg
Eccentricity:    0.0013846
Arg of perigee:   070.0062 deg
Mean anomaly:     032.9947 deg
Mean motion:   15.26203053 rev/day
Decay rate:     1.5285e-04 rev/day^2
Epoch rev:            3870
Checksum:              311

Satellite: E-STAR
Catalog number: 38079
Epoch time:      12278.48518885
Element set:     550
Inclination:      069.4857 deg
RA of node:       064.6073 deg
Eccentricity:    0.0707135
Arg of perigee:   109.3247 deg
Mean anomaly:     258.5464 deg
Mean motion:   14.22942666 rev/day
Decay rate:     6.1336e-04 rev/day^2
Epoch rev:            3308
Checksum:              335

Satellite: GOLIAT
Catalog number: 38085
Epoch time:      12278.48740678
Element set:     516
Inclination:      069.4873 deg
RA of node:       065.2746 deg
Eccentricity:    0.0713193
Arg of perigee:   109.6907 deg
Mean anomaly:     258.2457 deg
Mean motion:   14.21745117 rev/day
Decay rate:     5.9028e-04 rev/day^2
Epoch rev:            3306
Checksum:              332

Satellite: HORYU-2
Catalog number: 38340
Epoch time:      12278.88580632
Element set:     179
Inclination:      098.1845 deg
RA of node:       218.9168 deg
Eccentricity:    0.0012582
Arg of perigee:   347.8719 deg
Mean anomaly:     012.2022 deg
Mean motion:   14.70239287 rev/day
Decay rate:      2.103e-05 rev/day^2
Epoch rev:            2059
Checksum:              307

Satellite: RS-40
Catalog number: 38736
Epoch time:      12277.67696518
Element set:    0071
Inclination:      082.4788 deg
RA of node:       315.0678 deg
Eccentricity:    0.0019075
Arg of perigee:   163.8936 deg
Mean anomaly:     196.2761 deg
Mean motion:   12.42646648 rev/day
Decay rate:        1.0e-07 rev/day^2
Epoch rev:           00838
Checksum:              337

Satellite: PROITERES
Catalog number: 38756
Epoch time:      12278.88592976
Element set:      95
Inclination:      098.2835 deg
RA of node:       344.9095 deg
Eccentricity:    0.0012357
Arg of perigee:   193.7070 deg
Mean anomaly:     166.3795 deg
Mean motion:   14.73900714 rev/day
Decay rate:      1.013e-05 rev/day^2
Epoch rev:             378
Checksum:              335

Satellite: AENEAS
Catalog number: 38760
Epoch time:      12278.53401541
Element set:    0034
Inclination:      064.6757 deg
RA of node:       337.4563 deg
Eccentricity:    0.0218907
Arg of perigee:   283.6539 deg
Mean anomaly:     220.0928 deg
Mean motion:   14.79040195 rev/day
Decay rate:      5.424e-05 rev/day^2
Epoch rev:           00303
Checksum:              295

Satellite: OBJECT D
Catalog number: 38761
Epoch time:      12278.53286792
Element set:    0030
Inclination:      064.6753 deg
RA of node:       337.4447 deg
Eccentricity:    0.0219609
Arg of perigee:   283.7006 deg
Mean anomaly:     224.2856 deg
Mean motion:   14.79139013 rev/day
Decay rate:      3.542e-05 rev/day^2
Epoch rev:           00303
Checksum:              301

